Regional Weather Roundup
Issued by NWS Kansas City/Pleasant Hill, MO

Home | Current Version | Previous Version | Text Only | Print | Product List | Glossary On
Versions: 1 2 3 4 5 6 7 8 9 10 11 12 13 14 15 16 17 18 19 20 21 22 23 24 25 26 27 28 29 30 31 32 33 34 35 36 37 38 39 40 41 42 43 44 45 46 47 48 49 50
000
ASUS43 KEAX 170310
RWREAX

WEATHER ROUNDUP FOR EASTERN KANSAS AND NORTHWEST MISSOURI
NATIONAL WEATHER SERVICE KANSAS CITY/PLEASANT HILL MO
1000 PM CDT TUE SEP 16 2014

KSZ040-057-103>105-MOZ028-029-037-043-170400-
...KANSAS CITY METROPOLITAN AREA...

CITY           SKY/WX    TMP DP  RH WIND       PRES   REMARKS
K.C. INTL      CLOUDY    64  55  72 SE7       30.05R
K.C. DOWNTOWN  MOCLDY    68  55  63 E6        30.04R
LEES SUMMIT    PTCLDY    63  55  75 SE5       30.06R
OLATHE - IXD   CLOUDY    64  57  78 SE6       30.05S
OLATHE - OJC   CLOUDY    62  57  83 SE6       30.04S
LAWRENCE       MOCLDY    60  56  86 E6        30.04R

$$

MOZ001>008-011>017-020>025-030>033-038>040-044>046-053-054-170400-
...NORTHERN AND CENTRAL MISSOURI...

CITY           SKY/WX    TMP DP  RH WIND       PRES   REMARKS
ST. JOSEPH     CLOUDY    62  56  80 CALM      30.05R
MOSBY          MOCLDY    55  55 100 CALM      30.05S
WHITEMAN AFB   CLEAR     60  55  82 SE2       30.06R
CLINTON        CLEAR     59  57  94 CALM      30.06S
SEDALIA        CLEAR     60  54  80 SE5       30.06F
WARSAW         NOT AVBL
MARSHALL       CLEAR     59  55  88 E3        30.08R
CHILLICOTHE      N/A     55  52  89 CALM      30.08S
MOBERLY        CLEAR     54  50  87 E6        30.08S
KIRKSVILLE     CLEAR     51  48  89 CALM      30.09S

$$

MOZ041-047>049-056>058-063>065-088>090-097-170400-
...EASTERN AND SOUTHERN MISSOURI...

CITY           SKY/WX    TMP DP  RH WIND       PRES   REMARKS
ST. LOUIS INTL CLEAR     57  51  80 SE3       30.11S
SPIRIT OF STL  CLEAR     52  52 100 CALM      30.09F FOG
COLUMBIA         N/A     57  53  86 MISG      30.08S
JEFFERSON CITY CLEAR     56  53  90 SE6       30.07S
MEXICO         CLEAR    N/A N/A N/A CALM      30.09S
HANNIBAL       CLEAR     55  52  88 S5        30.09S
ROLLA          CLEAR     54  52  93 SE6       30.08S FOG
LEBANON        PTCLDY    59  57  94 CALM      30.09S
OSAGE BEACH    CLEAR     57  55  94 SE3       30.08S
SPRINGFIELD    CLEAR     64  61  90 S7        30.07S
BRANSON        CLOUDY    66  63  88 E6        30.09S
JOPLIN         CLEAR     68  65  90 SE5       30.04F
WEST PLAINS    CLOUDY    63  59  87 E3        30.11R

$$

IAZ060-094-KSZ022-034>040-054-083-096-NEZ052-066-093-170400-
...KANSAS...SOUTHEAST NEBRASKA AND IOWA...

CITY           SKY/WX    TMP DP  RH WIND       PRES   REMARKS
TOPEKA         CLOUDY    66  57  72 CALM      30.03S
MANHATTAN      MOCLDY    65  55  70 NE5       30.01R
EMPORIA        CLEAR     64  61  90 S6        30.02R
CHANUTE        CLEAR     67  63  87 SE6       30.03R
WICHITA        PTCLDY    70  64  81 S9        30.01R
OMAHA          CLOUDY    64  50  60 SE10      30.02F
LINCOLN        CLOUDY    65  51  60 SE9       30.02S
FALLS CITY     CLOUDY    63  55  75 E5        30.03S
LAMONI         CLEAR     57  49  74 SE3       30.06S
DES MOINES     PTCLDY    59  49  69 S7        30.07R

$$



USA.gov is the U.S. government's official web portal to all federal, state and local government web resources and services.